Location: Colonia Mina de C?rbuni
(46.1667°N, 22.7167°E)
Time: 06:14:47
(UTC+00:00)

BlueWalker 3 - Pass Details

Date: 04 February 2023
Orbit: 497 x 515 km, 53.2° (Epoch: 21 March)

Event Time Altitude Azimuth Distance (km) Brightness Sun altitude
Rises 14:58:12 0° 257° (WSW) 2,585 7.3 5.3°
Reaches altitude 10° 15:00:26 10° 264° (W) 1,706 6.1 5.0°
Maximum altitude 15:04:09 46° 339° (NNW) 686 2.7 4.4°
Drops below altitude 10° 15:07:55 10° 53° (NE) 1,723 4.0 3.9°
Enters shadow 15:11:05 -3° 62° (ENE) 2,968 5.1 3.4°
Exits shadow 15:46:42 -76° 90° (E) 12,913 8.9 -2.2°
